Regional Weather Roundup
Issued by NWS

Home | Current Version | Previous Version | Graphics & Text | Print | Product List | Glossary On
Versions: 1 2 3 4 5 6 7 8 9 10 11 12 13 14 15 16 17 18 19 20 21 22 23 24 25 26 27 28 29 30 31 32 33 34 35 36 37 38 39 40 41 42 43 44 45 46 47 48 49 50
000
ASUS45 KTFX 030910
RWRMT
MONTANA REGIONAL WEATHER ROUNDUP
NATIONAL WEATHER SERVICE GREAT FALLS MT
200 AM MST SAT DEC 03 2016

NOTE: "FAIR" INDICATES FEW OR NO CLOUDS BELOW 12000 FEET WITH NO
SIGNIFICANT WEATHER AND/OR OBSTRUCTIONS TO VISIBILITY.

MTZ001>007-043-031000-
WEST OF THE DIVIDE

CITY           SKY/WX    TMP DP  RH WIND       PRES   REMARKS
KALISPELL      LGT SNOW  32  30  93 S12       29.98F FOG     WCI  23
MISSOULA       CLOUDY    30  28  92 CALM      30.04
BUTTE          CLOUDY    27  18  69 NE5       29.98
ANACONDA         N/A     30  18  59 S14G22    29.99S WCI  20
DEER LODGE       N/A     27  21  80 CALM      30.00F
EUREKA           N/A     34  27  75 SE14      29.95S WCI  24
HAMILTON         N/A     36  19  51 SE13G18   30.03F WCI  27
LIBBY            N/A     30  30 100 CALM      29.95F
PLAINS           N/A     37  26  65 CALM      30.01F
RONAN            N/A     34  26  72 CALM      30.03F
$$

MTZ008-052>055-031000-
SOUTHWEST MONTANA

CITY           SKY/WX    TMP DP  RH WIND       PRES   REMARKS
DILLON         CLOUDY    28  15  58 SW15      30.02  WCI  16
W YELLOWSTONE  LGT SNOW  16  12  86 SW7       30.07F WCI   6
ENNIS          CLOUDY    25  14  63 S16       30.09S WCI  12
THREE FORKS      N/A     31 -60   1 S16       29.99F WCI  20
TWIN BRIDGES     N/A     30  12  47 SE12      30.02S WCI  20
$$

MTZ009-010-012-014-046-048-049-054-031000-
EAST SLOPES AND CENTRAL MONTANA

CITY           SKY/WX    TMP DP  RH WIND       PRES   REMARKS
GREAT FALLS    CLOUDY    31  21  66 SW22G30   29.82  WCI  18
MALMSTROM AFB  MOCLDY    33  23  67 SW23G35   29.83R WCI  20
HELENA         CLOUDY    28  23  81 E9        29.97  WCI  19
AUGUSTA        MOCLDY    35  19  52 W26G40    29.78S WCI  22
BOWMANS CRNR   MOCLDY    30  19  64 S22       29.82R WCI  17
CHOTEAU          N/A     39  19  45 VRB5      29.79R
CONRAD           N/A     37  25  62 SW6       29.80F
FAIRFIELD      CLOUDY    37  19  47 SW25G32   29.80R WCI  26
POWER          MOCLDY    30  21  69 SW14      29.80R WCI  19
RAYNESFORD     MOCLDY    33  21  60 MISG      29.83S
ULM            MOCLDY    34  22  61 W17G26    29.85R WCI  23
$$

MTZ011-013-016-021-045-047-050-051-031000-
NORTH CENTRAL MONTANA

CITY           SKY/WX    TMP DP  RH WIND       PRES   REMARKS
HAVRE          CLOUDY    34  25  69 SW24G32   29.76  WCI  21
LEWISTOWN      MOCLDY    30  20  66 SW16      29.81  WCI  19
N BAR RANCH    CLOUDY    28  16  59 W5        29.82F
CHINOOK          N/A     37  25  60 SW12G17   29.77F WCI  30
DENTON           N/A     29  22  73 SW22      29.78F WCI  16
GEYSER           N/A     30  20  66 W25G33    29.79R WCI  16
GRASS RANGE    CLOUDY    34  21  59 W13       29.78F WCI  25
JUDITH GAP     MOCLDY    29  19  67 SW9G24    29.82F WCI  20
ROY            MOCLDY    32  24  72 MISG      29.80F
STANFORD         N/A     30  20  66 W14       29.79F WCI  19
WINIFRED         N/A     31  22  69 MISG      29.80F
$$

MTZ017>020-022>027-061-062-031000-
NORTHEAST MONTANA

CITY           SKY/WX    TMP DP  RH WIND       PRES   REMARKS
GLASGOW        PTCLDY    27  20  75 CALM      29.83
JORDAN           N/A     24  17  74 W3        29.85F
WOLF POINT     CLOUDY    28  21  75 CALM      29.87
PLENTYWOOD       N/A     19  19 100 SE8       29.86F WCI   9
POPLAR           N/A     27  19  74 CALM      29.88F
SCOBEY           N/A     22  15  74 S6        29.82F WCI  15
$$

MTZ028>42-056>058-031000-
SOUTHCENTRAL AND SOUTHEAST MONTANA

CITY           SKY/WX    TMP DP  RH WIND       PRES   REMARKS
BILLINGS       CLOUDY    33  14  45 W14       29.89F WCI  23
LIVINGSTON     CLOUDY    30  13  49 W33G46    29.93  WCI  14
MILES CITY     CLEAR     22  17  81 S10       29.91  WCI  11
BIG TIMBER     CLOUDY    32  12  43 W28G40    29.92R WCI  18
EKALAKA          N/A     27  17  65 SE18      29.90F WCI  14
FORSYTH          N/A     28  18  64 CALM      29.89F
HARLOWTON      CLOUDY    31  20  62 W26G44    29.83F WCI  17
LAUREL           N/A     31   9  39 SW8       29.89F WCI  24
ROUNDUP          N/A     28  11  49 S9        29.80S WCI  19
$$

REGIONAL REPORTS...DAKOTAS

CITY           SKY/WX    TMP DP  RH WIND       PRES   REMARKS
DICKINSON      CLEAR     16  14  92 S10       29.97F WCI   4
BEACH            N/A     18  18 100 S12       29.96F WCI   5
CROSBY           N/A     21  21 100 S14       29.92F WCI   8
TIOGA            N/A     21  21 100 SE3       29.95F
WATFORD CITY     N/A     21  19  93 CALM      29.95F
GRAND FORKS    CLOUDY    29  20  69 S13       30.23S WCI  19
FARGO          CLOUDY    27  18  69 S12       30.27F WCI  17
BUFFALO SD       N/A     20  17  88 S6        29.92F WCI  12
RAPID CITY     CLEAR     20  17  88 SE6       30.03F WCI  12
$$

REGIONAL REPORTS...WYOMING/IDAHO/WASHINGTON

CITY           SKY/WX    TMP DP  RH WIND       PRES   REMARKS
SHERIDAN       CLEAR     18  11  74 S3        29.90
YELLOWSTONE LA   N/A     12   9  87 CALM      30.03F
IDAHO FALLS    CLOUDY    25  20  81 SW15      30.19  WCI  13
SALMON         CLOUDY    28  19  69 CALM      30.12S
BOISE          CLOUDY    34  24  67 S6        30.26  WCI  29
$$

REGIONAL REPORTS...ALBERTA

CITY           SKY/WX    TMP DP  RH WIND       PRES   REMARKS
EDMONTON       CLOUDY    25  21  86 W5        29.65R
CALGARY        MOCLDY    37  16  41 W13       29.66S WCI  29
LETHBRIDGE     CLOUDY    37  21  52 W32G44    29.70S WCI  25
MEDICINE HAT   CLOUDY    37  25  60 SW14G20   29.68R WCI  29
WATERTON GATE    N/A     30  21  69 SW29G47     N/A  WCI  15
CARDSTON         N/A     36  18  48 W18G30      N/A  WCI  25
ONEFOUR          N/A     28  21  74 SW6         N/A  WCI  22
$$

REGIONAL REPORTS...SASKATCHEWAN

CITY           SKY/WX    TMP DP  RH WIND       PRES   REMARKS
SWIFT CURRENT  CLOUDY    30  28  93 S18G24    29.65F WCI  18
REGINA         PTCLDY    19  18  93 SE14      29.82F WCI   6
SASKATOON      MOCLDY    23  21  93 E12G17    29.74F WCI  12
CYPRESS HILLS    N/A     27  25  93 S7          N/A  WCI  19
VAL MARIE        N/A     27  25  93 S10         N/A  WCI  17
ROCKGLEN         N/A     23  21  93 S8          N/A  WCI  14
ASSINIBOIA       N/A     27  25  93 S6          N/A  WCI  20
$$



USA.gov is the U.S. government's official web portal to all federal, state and local government web resources and services.